Weather History for LIBR - September, 2013

Change the Weather History Date:

Thursday, September 12, 2013

  Actual Average Record
Temperature  
Mean Temperature 76 °F -  
Max Temperature 84 °F 76 °F 91 °F (2008)
Min Temperature 68 °F 62 °F 59 °F (2001)
Cooling Degree Days 11    
Growing Degree Days 26 (Base 50)    
Moisture  
Dew Point 66 °F    
Average Humidity 75    
Maximum Humidity 88    
Minimum Humidity 39    
Precipitation  
Precipitation 0.02 in 0.07 in - ()
Sea Level Pressure  
Sea Level Pressure 29.95 in    
Wind  
Wind Speed 6 mph ()    
Max Wind Speed 25 mph    
Max Gust Speed -    
Visibility 6.2 miles    
Events      
Averages and records for this station are not official NWS values.
T = Trace of Precipitation, MM = Missing Value Source: Averaged Metar Reports

Daily Weather History Graph

Daily Weather History Graph

Search for Another Location

Airport or City:

Trip Planner

Search our weather history database for the weather conditions in past years. The results will help you decide how hot, cold, wet, or windy it might be!

Date:

Astronomy

Sep. 12, 2013 Rise Set
Actual Time 6:25 AM CEST 7:02 PM CEST
Civil Twilight 5:58 AM CEST 7:29 PM CEST
Nautical Twilight 5:25 AM CEST 8:02 PM CEST
Astronomical Twilight 4:52 AM CEST 8:35 PM CEST
Moon 1:38 PM CEST (9/12) 11:37 PM CEST (9/12)
Length of Visible Light 13h 31m
Length of Day
12h 36m
Waxing Crescent, 47% of the Moon is Illuminated
Sep 12
Waxing Crescent
Sep 12
First Quarter
Sep 19
Full
Sep 27
Last Quarter
Oct 5
New

Hourly Weather History & Observations

Time (CEST) Temp. Heat Index Dew Point Humidity Pressure Visibility Wind Dir Wind Speed Gust Speed Precip Events Conditions
12:15 AM 73.4 °F - 68.0 °F 83% 29.95 in - West 1.2 mph - N/A   Clear
12:45 AM 73.4 °F - 68.0 °F 83% 29.95 in - WNW 2.3 mph - N/A   Clear
1:15 AM 73.4 °F - 68.0 °F 83% 29.95 in - Calm Calm - N/A   Clear
1:45 AM 73.4 °F - 68.0 °F 83% 29.95 in - WNW 6.9 mph - N/A   Clear
2:00 AM 73 °F - 68 °F 80% 29.97 in 6 mi WNW 6.9 mph - -  
2:15 AM 71.6 °F - 68.0 °F 88% 29.95 in - WNW 6.9 mph - N/A   Clear
2:45 AM 71.6 °F - 66.2 °F 83% 29.95 in - West 6.9 mph - N/A   Clear
3:15 AM 71.6 °F - 66.2 °F 83% 29.95 in - West 6.9 mph - N/A   Clear
3:45 AM 69.8 °F - 66.2 °F 88% 29.95 in - WSW 5.8 mph - N/A   Clear
4:15 AM 69.8 °F - 66.2 °F 88% 29.95 in - WSW 6.9 mph - N/A   Clear
4:45 AM 68.0 °F - 64.4 °F 88% 29.95 in - West 5.8 mph - N/A   Clear
5:15 AM 68.0 °F - 64.4 °F 88% 29.95 in - West 6.9 mph - N/A   Clear
5:45 AM 68.0 °F - 60.8 °F 78% 29.95 in - West 2.3 mph - N/A   Clear
6:15 AM 69.8 °F - 60.8 °F 73% 29.98 in - WSW 4.6 mph - N/A   Clear
6:45 AM 69.8 °F - 60.8 °F 73% 29.98 in - SW 6.9 mph - N/A   Clear
7:15 AM 69.8 °F - 60.8 °F 73% 29.98 in - SW 6.9 mph - N/A   Clear
7:45 AM 69.8 °F - 62.6 °F 78% 29.98 in - South 8.1 mph - N/A   Clear
8:00 AM 69 °F - 62 °F 73% 29.98 in 6 mi South 8.1 mph - -   Partly Cloudy
8:15 AM 71.6 °F - 62.6 °F 73% 29.98 in 6.2 mi SW 3.5 mph - N/A   Partly Cloudy
8:45 AM 71.6 °F - 62.6 °F 73% 29.98 in 6.2 mi SW 2.3 mph - N/A   Partly Cloudy
9:15 AM 75.2 °F - 60.8 °F 61% 29.98 in 6.2 mi SW 5.8 mph - N/A   Partly Cloudy
9:45 AM 77.0 °F - 60.8 °F 57% 29.98 in 6.2 mi SW 6.9 mph - N/A   Partly Cloudy
10:15 AM 82.4 °F 82.0 °F 57.2 °F 42% 29.98 in - SSW 3.5 mph - N/A   Clear
10:45 AM 82.4 °F 81.7 °F 55.4 °F 39% 29.98 in - SSW 4.6 mph - N/A   Clear
11:15 AM 84.2 °F 86.6 °F 66.2 °F 55% 29.98 in 6.2 mi East 13.8 mph - N/A   Partly Cloudy
11:45 AM 82.4 °F 83.9 °F 64.4 °F 54% 29.98 in 6.2 mi East 12.7 mph - N/A   Partly Cloudy
12:15 PM 82.4 °F 83.9 °F 64.4 °F 54% 29.98 in 6.2 mi East 9.2 mph - N/A   Partly Cloudy
12:45 PM 82.4 °F 83.9 °F 64.4 °F 54% 29.98 in 6.2 mi East 11.5 mph - N/A   Partly Cloudy
1:15 PM 78.8 °F - 68.0 °F 69% 29.95 in 6.2 mi SW 5.8 mph - N/A   Scattered Clouds
1:45 PM 80.6 °F 83.2 °F 68.0 °F 65% 29.95 in 6.2 mi SSW 12.7 mph - N/A   Scattered Clouds
2:00 PM 80 °F - 69 °F 61% 29.96 in 6 mi SSW 12.7 mph - -   Partly Cloudy
2:15 PM 80.6 °F 83.2 °F 68.0 °F 65% 29.95 in 6.2 mi South 13.8 mph - N/A   Scattered Clouds
2:45 PM 80.6 °F 83.2 °F 68.0 °F 65% 29.95 in 6.2 mi South 13.8 mph - N/A   Scattered Clouds
3:15 PM 78.8 °F - 69.8 °F 74% 29.92 in 6.2 mi SSW 19.6 mph - N/A   Scattered Clouds
3:45 PM 80.6 °F 83.9 °F 69.8 °F 70% 29.92 in 6.2 mi SSW 20.7 mph - N/A   Scattered Clouds
4:15 PM 78.8 °F - 69.8 °F 74% 29.92 in 6.2 mi SW 23.0 mph - N/A   Scattered Clouds
4:45 PM 77.0 °F - 69.8 °F 78% 29.92 in 6.2 mi SW 25.3 mph - N/A   Scattered Clouds
5:15 PM 75.2 °F - 68.0 °F 78% 29.89 in 6.2 mi SW 25.3 mph - N/A   Scattered Clouds
5:45 PM 75.2 °F - 68.0 °F 78% 29.89 in 6.2 mi WSW 12.7 mph - N/A   Scattered Clouds
6:15 PM 73.4 °F - 68.0 °F 83% 29.92 in 6.2 mi North 6.9 mph - N/A   Partly Cloudy
6:45 PM 73.4 °F - 68.0 °F 83% 29.92 in 6.2 mi North 6.9 mph - N/A   Partly Cloudy
7:15 PM 73.4 °F - 68.0 °F 83% 29.92 in 6.2 mi NNW 4.6 mph - N/A   Partly Cloudy
7:45 PM 73.4 °F - 68.0 °F 83% 29.92 in 6.2 mi NNW 3.5 mph - N/A   Partly Cloudy
8:00 PM 73 °F - 67 °F 77% 29.93 in 6 mi NNW 3.5 mph - -   Partly Cloudy
8:15 PM 71.6 °F - 68.0 °F 88% 29.92 in 6.2 mi South 4.6 mph - N/A   Partly Cloudy
8:45 PM 71.6 °F - 68.0 °F 88% 29.92 in 6.2 mi SSE 4.6 mph - N/A   Partly Cloudy
9:15 PM 71.6 °F - 66.2 °F 83% 29.95 in - Calm Calm - N/A   Clear
9:45 PM 71.6 °F - 66.2 °F 83% 29.95 in - Calm Calm - N/A   Clear
10:15 PM 69.8 °F - 64.4 °F 83% 29.95 in 6.2 mi West 5.8 mph - N/A   Unknown
10:45 PM 69.8 °F - 64.4 °F 83% 29.98 in - West 4.6 mph - N/A   Clear
11:15 PM 69.8 °F - 64.4 °F 83% 29.98 in - West 5.8 mph - N/A   Clear
11:45 PM 69.8 °F - 62.6 °F 78% 29.98 in - West 4.6 mph - N/A   Clear